Temperature
24 23 23 22 21 21 23 26 27 27 27 27 27 26 25 24 23 21 21 21 21 21 20 20 20 20 20 20 19 19 19 19 19 19 19 19 19 19 19 18 18 18 18 18 18 18 18 18 18
24 23 23 22 21 22 24 26 27 27 27 27 26 26 24 23 21 21 20 21 22 21 21 20 20 20 19 19 19 19 19 19 19 19 19 19 19 19 18 18 18 18 18 18 18 18 18 18 17
24 24 23 20 21 22 24 26 27 27 27 27 26 26 25 22 21 21 21 21 22 21 21 20 20 20 19 19 19 19 19 19 19 18 18 18 18 18 18 18 18 18 18 18 18 18 18 17 17
24 24 23 20 22 24 26 27 27 27 27 27 26 25 24 23 23 22 22 22 22 21 21 20 20 20 19 19 19 19 19 19 19 18 18 18 18 18 18 18 18 18 18 18 18 18 17 17 17
24 23 21 21 23 25 27 28 28 27 26 26 25 24 23 23 24 23 22 22 22 21 21 20 20 20 20 19 19 19 19 19 18 18 18 18 18 18 18 18 18 18 18 18 18 18 17 17 17
24 22 21 22 24 26 27 28 27 26 25 25 25 24 22 23 23 23 22 22 22 22 21 20 20 20 20 19 19 19 19 19 18 18 18 18 18 18 18 18 18 18 18 18 18 18 17 17 17
24 21 22 23 24 26 28 28 27 26 25 25 25 23 22 21 22 22 22 22 22 22 21 21 20 20 20 20 19 19 19 19 18 18 18 18 18 18 18 18 18 18 18 18 18 18 17 17 17
26 22 23 23 25 26 28 28 27 26 26 26 25 23 22 21 22 22 22 22 22 21 21 21 20 20 20 20 19 19 19 19 18 18 18 18 18 18 18 18 18 18 18 18 18 18 17 17 17
27 22 22 24 26 27 28 28 27 27 26 25 26 25 24 22 21 21 21 21 21 21 21 21 20 20 20 20 19 19 19 19 18 18 18 18 18 18 18 18 18 18 18 18 18 18 17 17 17
26 22 23 26 27 27 28 28 28 27 25 25 25 25 24 22 21 21 21 21 21 21 21 21 21 20 20 20 19 19 19 19 19 18 18 18 18 18 18 18 18 18 18 18 18 18 18 17 17
26 24 26 27 28 29 28 28 28 27 25 25 25 24 23 22 22 21 21 21 22 21 21 21 20 20 20 20 19 19 19 19 18 18 18 18 18 18 18 18 18 18 18 18 18 18 18 17 17
27 27 28 29 30 29 29 29 28 28 27 27 27 25 23 22 22 22 22 21 21 21 21 21 20 20 20 20 20 19 19 19 19 18 18 18 18 18 18 18 18 18 18 18 18 18 18 18 17
27 27 29 30 30 30 29 29 29 28 28 27 26 25 24 23 23 22 23 22 21 21 21 20 20 20 20 20 19 19 19 19 19 18 18 18 18 18 18 18 18 18 18 18 18 18 18 18 18
28 28 28 29 30 30 29 28 28 28 27 26 25 24 24 23 23 22 22 22 21 21 21 20 20 20 20 20 19 19 19 19 18 18 18 18 18 18 18 18 18 18 18 18 18 18 18 17 17
28 26 27 28 29 29 29 27 27 28 27 26 25 24 24 24 23 23 23 22 22 21 21 20 20 20 20 20 19 19 19 19 18 18 18 18 18 18 18 18 18 18 17 17 17 17 17 17 17
26 26 25 27 28 29 28 26 27 28 26 25 24 24 24 24 24 23 23 22 22 21 21 20 20 20 19 19 19 19 19 19 19 18 18 18 18 18 18 18 18 17 17 17 17 17 17 17 17
24 24 25 27 29 29 28 26 27 27 26 25 25 24 23 23 23 23 23 22 22 21 21 20 20 20 19 19 19 19 19 18 18 18 18 18 18 18 18 18 18 17 17 17 17 17 17 17 17
23 25 26 26 28 29 27 27 27 27 26 25 25 24 24 23 24 23 23 22 21 21 21 20 20 19 19 19 18 18 18 18 18 18 18 18 18 18 18 18 18 18 17 17 17 17 17 17 17
25 25 25 27 29 28 27 27 27 26 26 25 24 24 24 24 24 23 22 22 21 21 21 20 20 19 19 19 19 18 18 18 18 18 18 18 18 18 18 18 18 18 17 17 17 17 17 17 17
25 25 25 26 28 29 27 27 26 26 25 25 24 24 24 23 23 23 22 22 21 21 21 20 20 19 19 19 19 19 19 18 18 18 18 18 18 18 18 18 18 18 17 17 17 17 17 17 17
25 25 26 27 27 27 27 25 25 25 26 25 25 24 24 24 23 22 22 22 21 21 21 20 20 20 19 19 19 18 18 18 18 18 18 18 18 18 18 18 18 17 17 17 17 17 17 17 17
25 26 27 27 26 24 26 23 24 24 24 24 24 24 23 23 23 22 22 21 21 21 20 20 20 19 19 19 19 18 18 18 18 18 18 18 17 17 17 17 17 17 17 17 17 17 17 17 17
26 27 28 27 26 24 24 23 22 23 23 23 23 23 23 23 23 23 22 22 21 21 20 20 19 19 19 19 19 18 18 18 18 18 18 18 17 17 17 17 17 17 17 17 17 17 17 17 17
28 27 25 22 21 22 23 23 22 22 23 23 22 23 23 23 23 22 22 22 21 20 20 20 19 19 19 18 18 18 18 18 18 18 18 17 17 17 17 17 17 17 17 17 17 17 17 17 17
27 23 21 22 20 21 22 23 22 22 23 23 22 22 23 23 22 22 22 21 21 20 20 20 19 19 19 18 18 18 18 18 18 18 18 18 17 17 17 17 17 17 17 17 17 17 17 17 17
25 22 21 22 21 21 22 22 22 23 23 23 23 22 22 22 22 22 22 21 21 21 20 19 19 19 19 18 18 18 18 18 18 18 18 18 18 18 17 17 17 17 17 17 17 17 17 17 17
25 23 21 20 21 21 21 22 23 23 22 22 22 22 22 22 22 22 22 21 21 20 20 19 19 19 18 18 18 18 18 18 18 18 18 18 18 17 17 17 17 17 17 17 17 17 17 17 17
26 24 20 20 21 21 22 22 21 22 22 21 21 21 21 22 22 21 21 21 21 20 20 19 19 19 18 18 18 18 18 17 17 17 17 17 17 17 17 17 17 17 17 17 17 17 17 16 16
25 24 21 19 19 20 21 21 22 22 21 21 21 21 21 21 21 21 21 21 20 20 19 19 18 18 18 18 18 17 17 17 17 17 17 17 17 17 17 17 17 17 17 17 16 16 16 16 16
25 24 21 21 21 19 20 20 23 22 21 21 21 21 21 21 21 21 20 20 20 19 19 19 18 18 18 18 17 17 17 17 17 17 17 17 17 17 17 17 17 17 17 16 16 16 16 16 16
Wind_Speed
7 5 2 0 4 4 2 3 9 12 8 8 10 10 8 6 5 6 6 15 19 17 18 21 21 20 20 19 19 18 18 17 17 17 17 17 17 17 17 17 17 17 17 17 17 17 18 18 18
3 3 1 3 5 4 1 4 11 12 10 12 12 11 8 7 9 11 9 16 19 17 18 20 21 21 20 20 19 18 17 17 16 16 16 16 16 16 17 17 17 17 17 17 17 17 17 17 17
2 1 3 4 2 1 1 3 10 11 11 9 6 6 6 8 11 8 12 20 17 15 18 21 23 21 21 20 19 18 17 17 16 16 16 16 16 16 17 17 17 16 16 16 16 16 16 16 16
1 3 4 4 3 5 4 3 9 11 9 8 7 6 5 6 9 13 21 20 18 14 17 21 23 22 21 20 19 18 17 17 16 15 15 16 16 16 16 16 16 16 16 15 15 15 15 14 14
3 4 5 3 5 4 2 5 9 10 7 7 8 7 5 5 19 23 21 20 19 14 16 21 23 22 21 20 20 18 17 17 16 15 15 16 16 16 16 16 16 15 15 15 14 14 14 13 13
3 4 3 3 5 4 3 5 10 11 11 9 9 7 4 12 22 22 21 18 18 17 15 20 23 22 22 21 20 18 17 17 16 16 15 15 16 16 15 15 15 15 14 14 13 13 12 12 11
4 3 1 4 3 2 2 3 9 10 11 7 8 7 6 13 18 20 18 17 16 15 14 15 19 21 22 21 20 19 18 17 17 16 15 15 16 16 15 15 15 14 14 13 12 11 11 10 10
5 4 2 3 2 2 2 2 7 10 9 9 9 9 9 14 18 19 17 16 15 14 12 11 14 16 17 18 20 19 19 18 17 16 16 15 16 15 15 14 14 13 13 12 11 10 9 8 9
3 3 3 4 2 3 2 4 4 5 9 6 5 7 13 21 22 20 17 14 13 14 11 10 10 12 14 15 18 18 18 18 17 16 16 14 13 13 13 13 13 13 12 11 9 8 8 7 7
5 4 8 7 6 5 4 5 7 5 6 4 6 10 17 22 23 23 21 19 16 16 13 11 11 11 13 14 15 14 14 15 14 13 14 12 12 11 12 13 13 12 11 10 8 7 6 5 4
6 8 9 9 10 8 4 3 4 9 6 9 14 17 19 22 21 21 20 19 19 18 16 13 12 12 11 9 12 10 11 12 12 13 13 12 11 9 10 9 10 10 9 7 6 5 3 3 3
5 9 8 8 7 3 4 3 3 6 8 13 19 21 20 21 21 21 20 18 17 17 16 14 13 11 10 11 10 9 9 9 9 12 14 12 8 7 8 7 8 7 7 6 5 4 3 2 2
6 7 8 8 6 3 3 2 3 3 7 13 16 17 17 18 19 18 19 18 17 16 16 15 14 13 11 9 8 9 8 9 11 12 14 13 8 6 7 6 7 7 7 6 5 4 3 2 3
6 8 9 8 8 4 3 2 2 4 11 16 18 15 15 16 17 15 16 17 17 16 16 15 15 13 11 10 8 7 9 10 11 11 13 15 12 9 7 5 6 6 8 8 7 6 4 3 3
6 9 11 8 6 4 2 3 5 9 13 17 18 17 15 14 15 17 18 18 17 16 16 15 15 13 13 11 9 9 10 11 9 10 13 14 13 11 8 5 5 6 9 8 6 5 3 2 2
7 6 6 9 5 6 5 4 6 9 15 14 16 16 14 13 14 14 15 15 15 14 15 15 16 13 12 10 8 7 9 10 9 11 12 13 14 13 9 5 5 7 8 7 4 3 3 2 2
4 4 7 10 7 4 4 5 6 8 13 14 14 16 15 12 11 12 13 15 15 15 15 14 13 13 11 9 7 7 7 8 9 10 10 11 12 13 10 6 6 8 6 4 4 3 3 3 2
6 6 7 10 8 2 3 4 6 8 11 12 12 13 14 14 13 14 13 14 14 14 14 13 12 12 10 8 6 5 5 5 7 8 9 11 11 12 10 6 6 7 4 4 3 4 3 3 3
7 9 12 13 10 2 3 4 6 9 9 10 10 11 13 12 10 11 13 15 14 13 13 13 13 12 10 8 7 6 5 5 5 5 9 11 11 11 9 5 5 5 5 5 5 4 4 2 2
10 10 11 11 8 2 2 2 4 8 11 13 14 13 13 10 9 11 12 13 14 14 13 13 13 13 11 9 7 5 5 4 5 4 7 10 10 10 9 6 5 5 5 5 5 4 3 2 3
11 8 8 9 8 6 3 5 4 2 3 6 10 12 13 15 14 14 13 12 12 13 14 13 12 12 11 10 7 6 4 4 3 4 5 6 10 10 9 8 6 5 5 5 5 5 6 4 2
10 11 8 6 5 5 2 2 6 3 1 5 7 9 11 11 12 12 13 13 13 13 12 11 11 11 10 10 10 9 7 6 6 5 5 6 8 9 9 8 8 6 5 6 6 5 4 5 3
10 9 5 3 1 4 4 1 6 1 1 4 5 8 9 10 12 13 14 14 13 12 11 10 11 10 10 10 11 10 7 6 4 5 6 6 5 6 8 8 7 6 5 6 6 5 5 4 5
8 2 7 6 5 3 5 3 5 4 6 6 6 7 8 10 11 10 10 10 9 10 10 10 11 10 10 10 10 10 10 8 8 7 7 6 4 4 6 8 7 6 6 6 6 6 6 5 5
2 5 4 5 5 5 4 2 6 7 5 9 11 9 8 9 10 11 11 10 10 11 10 10 11 10 10 10 10 10 10 10 10 9 8 7 5 5 7 7 6 5 6 6 6 6 5 6 5
6 10 8 6 5 5 4 2 5 3 2 8 9 8 8 8 8 10 11 11 10 10 10 10 10 9 10 10 10 9 9 7 7 8 8 8 6 6 6 6 6 6 6 6 5 4 5 5 5
7 7 10 8 3 2 4 3 4 3 4 7 9 9 9 9 9 9 9 9 9 9 8 9 9 8 8 9 8 8 8 8 8 8 7 6 5 6 6 6 6 5 5 5 6 5 5 5 5
10 9 7 6 5 4 4 4 5 5 5 6 7 7 7 7 8 8 8 8 8 8 7 7 7 7 6 7 7 7 7 7 7 7 7 7 6 6 7 7 6 6 6 6 5 4 5 5 5
5 6 6 6 7 7 4 6 6 10 11 10 9 8 8 8 9 9 7 7 7 7 7 7 6 5 5 6 6 6 5 6 6 6 6 6 6 6 7 7 6 6 6 6 6 6 5 6 5
9 10 10 7 6 6 5 7 6 7 9 10 10 9 8 8 8 8 8 7 7 7 7 7 6 6 6 5 5 5 4 5 5 5 5 5 6 6 6 5 5 6 6 6 7 7 6 6 6
Wind_Direction
225 209 182 123 45 39 63 89 90 76 62 69 81 88 89 76 115 135 133 139 136 140 144 143 141 137 134 131 128 125 122 119 116 114 113 112 112 113 113 113 112 113 113 112 112 112 112 111 112
231 210 133 45 56 36 29 105 93 97 110 102 86 88 80 70 91 111 122 139 137 139 141 143 142 139 137 134 131 128 126 123 121 119 117 117 116 115 115 115 114 114 114 114 114 113 113 112 113
251 224 74 54 63 186 292 109 111 104 102 96 90 73 81 113 119 123 141 139 135 136 140 144 143 141 139 137 134 132 130 128 125 124 122 120 118 117 116 116 115 115 115 115 115 114 113 112 112
84 53 47 47 297 238 217 171 128 110 90 82 90 74 76 118 130 135 140 139 135 135 140 145 145 143 141 139 137 136 135 132 129 128 125 123 122 120 119 118 118 117 117 117 116 115 114 112 112
80 74 47 353 296 295 246 158 128 117 109 96 92 92 62 69 123 134 141 141 139 138 141 146 146 145 144 142 141 140 139 136 133 131 129 126 125 123 122 121 120 119 119 118 118 116 114 112 111
52 72 60 307 297 304 281 139 114 110 112 111 109 103 84 127 132 142 144 145 142 143 143 147 148 148 147 145 144 143 141 138 137 136 133 131 128 127 126 125 123 123 123 121 120 119 115 111 107
124 98 211 263 293 313 232 156 123 129 128 139 132 108 121 143 144 144 142 141 141 142 143 146 150 151 151 150 148 146 145 143 141 139 137 135 133 132 130 128 128 128 128 126 125 122 116 110 103
149 110 289 280 284 264 211 131 134 140 138 144 139 137 156 159 146 140 137 139 141 145 146 146 148 150 151 152 151 150 149 147 146 144 142 141 139 137 135 134 134 133 133 132 130 126 120 112 103
123 88 251 252 250 259 199 129 140 134 128 150 155 150 153 147 143 139 138 140 146 150 153 151 150 149 150 152 154 153 152 151 150 149 147 143 138 138 139 142 140 140 141 140 137 134 125 113 104
123 169 225 217 213 225 225 168 163 137 124 122 114 119 139 144 148 150 153 156 159 160 163 160 157 156 156 157 151 152 151 151 150 151 147 145 145 146 147 150 149 148 147 146 147 145 135 117 105
184 209 238 243 232 229 228 213 174 145 162 168 155 152 152 151 155 158 162 165 166 165 166 166 165 163 163 152 153 155 153 154 156 157 156 155 153 151 150 153 153 152 152 150 156 155 148 135 126
251 258 255 257 254 241 224 193 164 169 181 173 163 158 157 159 163 165 166 167 166 167 169 167 169 167 164 156 161 161 160 164 166 170 168 161 152 153 155 155 160 162 164 165 169 171 190 186 176
275 275 281 275 287 251 230 206 176 170 152 147 150 155 159 164 168 169 168 166 166 170 171 169 172 171 165 161 169 167 169 172 172 172 173 167 159 161 160 163 172 180 182 180 179 191 205 197 171
281 300 303 290 291 270 228 241 145 180 144 143 152 163 164 165 165 162 166 169 170 172 171 170 173 172 167 167 170 167 170 171 169 170 174 172 167 166 165 167 175 187 192 188 182 187 190 184 159
321 328 319 293 277 258 124 319 204 179 152 152 160 167 168 168 164 169 172 172 171 171 169 172 174 172 169 168 168 165 167 166 167 171 175 174 172 172 170 167 178 189 191 182 172 172 168 163 148
346 343 312 293 277 256 146 231 220 170 153 158 165 170 172 173 173 175 171 167 168 167 169 174 174 172 168 165 162 161 164 165 167 170 172 172 172 172 168 168 178 183 175 163 154 153 144 148 144
346 306 289 297 284 251 162 201 204 168 159 166 170 173 175 177 179 178 173 167 168 168 168 170 168 168 166 158 153 153 154 161 167 167 167 168 168 169 167 169 172 169 159 157 167 152 149 153 161
258 285 299 296 299 288 165 191 184 171 164 168 172 171 172 178 183 181 175 168 165 166 165 165 162 162 155 147 138 134 142 155 161 164 168 168 169 167 163 167 165 158 147 152 152 151 149 152 160
256 283 290 289 293 321 183 185 190 181 171 168 169 167 170 180 180 171 169 167 163 163 163 165 161 162 157 154 153 150 159 160 162 171 175 173 172 167 161 164 158 152 158 168 158 143 145 143 128
262 273 282 292 306 350 238 242 214 187 185 176 174 174 172 167 159 163 164 166 168 170 168 167 165 166 166 165 160 154 148 157 168 171 177 178 176 173 172 161 162 159 155 158 160 147 141 159 145
271 257 263 278 317 356 44 347 328 267 177 178 177 174 171 170 168 167 164 166 168 171 172 172 170 168 166 158 143 130 117 115 145 174 182 186 180 178 174 166 162 167 164 169 174 163 153 166 183
262 260 259 292 342 309 50 282 290 273 176 187 182 171 173 173 164 165 163 166 172 176 171 164 167 167 165 160 161 161 166 172 184 180 182 187 182 181 179 167 167 172 172 174 182 177 162 153 171
236 251 271 302 357 338 346 132 284 342 196 212 182 168 174 171 165 166 168 170 170 169 167 164 165 169 167 169 171 171 173 175 169 166 173 184 189 189 183 174 171 176 180 182 182 172 167 162 167
238 320 10 35 62 335 277 167 275 254 218 187 170 164 167 165 166 163 157 154 158 160 164 164 166 174 174 174 176 176 176 172 168 173 179 185 188 194 192 181 177 181 183 184 185 179 169 170 166
201 93 22 348 4 258 282 164 250 259 209 168 165 164 161 160 157 153 155 159 161 163 167 167 168 176 178 178 182 184 183 179 181 181 185 184 187 195 199 193 185 185 187 183 176 174 174 171 169
202 145 162 200 223 275 328 233 263 280 145 136 138 140 148 155 158 159 163 165 165 166 167 169 175 180 183 185 188 187 184 183 187 187 184 187 192 194 189 190 191 189 182 182 174 176 184 177 179
179 180 173 151 190 282 292 287 321 52 101 124 132 138 154 163 161 160 160 158 162 164 171 176 176 179 183 185 181 184 187 186 187 187 183 187 187 188 182 184 186 189 183 178 172 181 186 175 181
177 163 109 129 170 237 274 251 220 194 166 150 145 153 158 159 159 154 157 161 160 163 166 169 170 177 176 177 180 184 185 185 183 179 182 187 189 186 177 184 187 187 186 184 178 180 184 176 187
173 155 138 140 156 163 223 262 230 187 177 166 159 159 151 154 158 152 148 149 147 147 149 153 157 158 162 166 171 170 176 176 174 179 184 184 184 180 180 188 189 189 190 187 182 187 181 182 189
185 185 158 164 210 168 172 258 267 184 169 159 152 150 147 151 151 149 146 139 138 143 146 150 154 155 160 157 149 154 158 162 171 180 181 177 177 180 183 184 187 190 189 184 182 190 185 185 188
Height
1510 1508 1507 1507 1509 1517 1516 1504 1495 1496 1497 1497 1497 1498 1501 1505 1511 1521 1518 1520 1523 1526 1529 1533 1535 1536 1538 1539 1541 1542 1543 1544 1545 1546 1547 1547 1548 1549 1549 1550 1551 1552 1553 1554 1555 1556 1556 1557 1558
1510 1509 1509 1509 1518 1530 1519 1502 1499 1498 1499 1499 1500 1502 1504 1508 1509 1513 1516 1521 1524 1526 1530 1533 1535 1537 1539 1540 1542 1543 1544 1545 1546 1547 1548 1549 1550 1550 1551 1552 1553 1554 1555 1556 1557 1558 1559 1559 1560
1511 1510 1510 1513 1523 1528 1518 1502 1499 1498 1498 1498 1501 1504 1507 1511 1512 1514 1517 1521 1525 1527 1530 1533 1536 1538 1540 1541 1543 1544 1545 1547 1548 1549 1549 1550 1551 1552 1553 1554 1555 1556 1557 1558 1559 1560 1561 1562 1563
1512 1512 1513 1520 1523 1514 1507 1500 1497 1498 1500 1500 1502 1507 1510 1513 1512 1515 1519 1522 1525 1528 1531 1534 1536 1538 1540 1542 1543 1545 1546 1548 1549 1550 1551 1552 1553 1554 1555 1555 1557 1557 1559 1560 1561 1562 1563 1564 1565
1512 1513 1520 1527 1520 1507 1500 1497 1496 1497 1500 1502 1503 1508 1512 1514 1514 1517 1520 1523 1525 1528 1531 1534 1537 1539 1541 1543 1544 1546 1547 1549 1550 1551 1552 1553 1554 1555 1556 1557 1558 1559 1561 1562 1563 1565 1566 1567 1568
1513 1515 1528 1531 1518 1505 1499 1496 1496 1498 1502 1503 1505 1510 1515 1515 1515 1518 1521 1524 1526 1528 1531 1534 1537 1539 1541 1543 1545 1546 1548 1549 1551 1552 1554 1555 1556 1557 1558 1559 1560 1561 1563 1564 1565 1567 1568 1569 1570
1514 1519 1526 1523 1516 1507 1500 1497 1497 1498 1501 1503 1504 1510 1516 1517 1517 1520 1522 1525 1527 1529 1531 1534 1536 1539 1541 1543 1545 1546 1548 1550 1552 1553 1555 1556 1557 1558 1559 1561 1562 1563 1564 1566 1567 1569 1570 1572 1573
1512 1517 1522 1520 1513 1507 1498 1497 1497 1497 1500 1502 1503 1507 1513 1516 1518 1520 1523 1526 1527 1530 1532 1534 1536 1538 1541 1543 1545 1547 1548 1550 1552 1554 1556 1557 1558 1560 1561 1562 1563 1565 1566 1568 1569 1571 1572 1574 1575
1511 1520 1525 1516 1510 1503 1497 1497 1498 1498 1498 1501 1502 1503 1507 1513 1517 1519 1522 1525 1527 1529 1532 1534 1536 1538 1540 1543 1545 1547 1549 1551 1553 1555 1556 1558 1559 1561 1562 1563 1565 1566 1568 1569 1571 1572 1574 1575 1576
1509 1521 1515 1503 1499 1497 1494 1495 1496 1499 1500 1501 1502 1505 1509 1512 1514 1516 1519 1522 1525 1527 1531 1534 1536 1538 1540 1542 1545 1547 1549 1551 1553 1555 1557 1559 1560 1562 1563 1565 1566 1568 1569 1571 1572 1574 1576 1577 1578
1505 1508 1501 1496 1494 1493 1492 1493 1494 1496 1499 1498 1499 1503 1507 1510 1513 1515 1517 1520 1523 1527 1530 1533 1536 1538 1540 1542 1545 1547 1550 1552 1553 1555 1557 1559 1561 1562 1564 1566 1567 1569 1570 1572 1573 1575 1577 1578 1579
1502 1498 1496 1493 1491 1491 1490 1490 1492 1492 1494 1494 1495 1499 1503 1507 1509 1512 1515 1519 1523 1526 1529 1532 1535 1538 1540 1542 1544 1547 1549 1551 1553 1555 1557 1559 1561 1563 1565 1566 1568 1570 1571 1573 1574 1576 1577 1579 1580
1498 1495 1492 1489 1487 1487 1487 1488 1489 1490 1491 1493 1496 1500 1502 1503 1506 1510 1514 1518 1521 1525 1528 1531 1534 1537 1539 1542 1544 1546 1549 1551 1553 1555 1557 1559 1561 1563 1565 1567 1569 1570 1572 1573 1575 1576 1578 1579 1580
1496 1493 1489 1486 1484 1484 1485 1486 1488 1489 1490 1492 1495 1498 1500 1501 1504 1509 1512 1515 1518 1522 1526 1529 1532 1535 1538 1540 1543 1546 1548 1551 1553 1555 1557 1559 1561 1563 1565 1567 1569 1570 1572 1574 1575 1577 1578 1579 1581
1494 1493 1489 1483 1482 1482 1484 1490 1486 1486 1488 1490 1493 1496 1499 1501 1504 1507 1509 1512 1516 1520 1524 1527 1530 1534 1536 1539 1542 1545 1547 1550 1552 1554 1556 1559 1561 1563 1565 1566 1568 1570 1572 1574 1576 1577 1578 1580 1581
1495 1499 1502 1486 1481 1479 1487 1498 1485 1485 1486 1489 1492 1495 1498 1500 1502 1505 1508 1511 1514 1518 1522 1525 1529 1532 1535 1538 1541 1544 1546 1549 1551 1553 1556 1558 1560 1562 1564 1566 1568 1570 1572 1573 1575 1577 1578 1580 1581
1506 1512 1506 1492 1478 1477 1484 1492 1484 1484 1485 1487 1490 1493 1496 1498 1501 1504 1507 1509 1513 1516 1520 1523 1527 1530 1533 1537 1540 1543 1545 1547 1550 1552 1555 1557 1560 1562 1564 1566 1567 1569 1571 1573 1575 1576 1578 1579 1580
1515 1510 1504 1497 1481 1478 1483 1485 1482 1483 1484 1485 1488 1490 1493 1496 1498 1502 1505 1508 1512 1515 1518 1522 1525 1528 1532 1535 1539 1541 1544 1546 1548 1551 1553 1556 1558 1560 1563 1565 1566 1568 1570 1572 1574 1575 1577 1578 1580
1504 1506 1505 1493 1479 1480 1483 1484 1482 1481 1483 1485 1487 1488 1490 1494 1497 1500 1503 1506 1510 1513 1516 1519 1522 1526 1530 1533 1536 1539 1542 1544 1547 1549 1552 1554 1557 1559 1561 1563 1565 1567 1569 1571 1572 1574 1576 1577 1579
1500 1505 1502 1490 1478 1480 1484 1484 1480 1479 1480 1481 1483 1486 1489 1491 1494 1497 1500 1503 1507 1510 1513 1517 1520 1523 1527 1530 1533 1537 1540 1542 1545 1548 1550 1553 1555 1557 1559 1561 1563 1565 1567 1569 1571 1573 1574 1576 1577
1498 1501 1497 1493 1483 1481 1485 1494 1486 1480 1480 1482 1482 1483 1486 1488 1490 1494 1497 1501 1505 1508 1511 1515 1518 1521 1525 1528 1532 1535 1538 1541 1543 1545 1548 1551 1553 1555 1558 1559 1561 1563 1565 1567 1569 1571 1573 1574 1576
1500 1487 1486 1487 1495 1503 1494 1514 1496 1486 1484 1482 1482 1484 1485 1487 1489 1492 1495 1499 1502 1506 1510 1513 1516 1520 1523 1526 1529 1532 1534 1536 1539 1542 1545 1548 1550 1552 1555 1557 1559 1562 1564 1565 1567 1569 1571 1572 1574
1487 1479 1481 1484 1493 1504 1500 1510 1504 1489 1489 1485 1483 1484 1486 1487 1489 1491 1494 1498 1501 1505 1508 1511 1514 1518 1521 1524 1526 1529 1532 1534 1537 1540 1543 1545 1548 1550 1552 1555 1557 1559 1561 1563 1565 1567 1568 1570 1572
1476 1480 1487 1495 1506 1520 1507 1510 1510 1495 1486 1483 1483 1484 1485 1488 1490 1492 1495 1498 1501 1504 1507 1510 1513 1515 1518 1521 1523 1526 1529 1532 1534 1537 1539 1542 1545 1547 1549 1552 1554 1556 1558 1560 1562 1564 1566 1568 1569
1477 1500 1522 1523 1532 1527 1505 1507 1506 1484 1477 1477 1480 1483 1486 1488 1490 1492 1495 1498 1500 1503 1506 1509 1511 1513 1515 1518 1520 1523 1526 1528 1531 1534 1536 1539 1541 1544 1546 1549 1551 1553 1555 1557 1559 1561 1563 1565 1566
1481 1495 1523 1533 1534 1525 1507 1508 1496 1479 1476 1476 1479 1483 1486 1489 1490 1492 1494 1497 1500 1502 1505 1507 1509 1511 1513 1516 1518 1520 1523 1525 1528 1530 1533 1536 1538 1540 1543 1545 1548 1550 1552 1554 1556 1558 1560 1562 1564
1479 1489 1492 1513 1518 1524 1517 1502 1490 1480 1480 1480 1481 1482 1486 1489 1491 1493 1495 1498 1500 1503 1504 1506 1508 1510 1512 1514 1516 1518 1520 1522 1525 1527 1530 1533 1535 1537 1540 1542 1544 1547 1549 1551 1553 1555 1557 1559 1560
1465 1475 1497 1512 1527 1532 1519 1508 1503 1489 1485 1483 1483 1484 1486 1489 1491 1493 1495 1499 1501 1503 1505 1506 1508 1509 1511 1512 1514 1515 1518 1520 1522 1524 1527 1529 1532 1534 1536 1538 1541 1543 1545 1547 1550 1551 1553 1555 1556
1469 1475 1487 1505 1512 1525 1528 1515 1483 1481 1481 1482 1483 1485 1486 1488 1490 1493 1496 1499 1501 1503 1505 1506 1507 1509 1510 1511 1512 1514 1515 1517 1519 1521 1523 1526 1528 1530 1532 1535 1537 1539 1541 1543 1545 1547 1549 1551 1553
1459 1468 1482 1501 1506 1511 1518 1509 1473 1474 1475 1478 1481 1484 1487 1489 1492 1494 1496 1498 1501 1502 1504 1505 1507 1508 1509 1510 1511 1512 1514 1515 1517 1518 1520 1523 1525 1527 1529 1531 1533 1535 1537 1539 1541 1543 1545 1547 1549